Time,TemperatureF,DewpointF,PressureIn,WindDirection,WindDirectionDegrees,WindSpeedMPH,WindSpeedGustMPH,Humidity,HourlyPrecipIn,Conditions,Clouds,dailyrainin,SoftwareType,DateUTC
2013-01-23 00:00:00,39.0,-99.9,-100.00,SSE,149,2.0,-999.0,-999,-99.99,,,-99.99,,2013-01-23 08:00:00,
2013-01-23 00:53:00,39.0,-99.9,-100.00,SSE,149,2.0,-999.0,-999,-99.99,,,-99.99,,2013-01-23 08:53:00,
2013-01-23 01:00:00,39.0,-99.9,-100.00,SE,141,5.0,-999.0,-999,-99.99,,,-99.99,,2013-01-23 09:00:00,
2013-01-23 02:00:00,40.0,-99.9,-100.00,SSE,157,5.0,-999.0,-999,-99.99,,,-99.99,,2013-01-23 10:00:00,
2013-01-23 02:53:00,40.0,-99.9,-100.00,SSE,157,5.0,-999.0,-999,-99.99,,,-99.99,,2013-01-23 10:53:00,
2013-01-23 03:00:00,42.0,-99.9,-100.00,SSE,157,3.0,-999.0,-999,-99.99,,,-99.99,,2013-01-23 11:00:00,
2013-01-23 04:00:00,42.0,-99.9,-100.00,ENE,77,2.0,-999.0,-999,-99.99,,,-99.99,,2013-01-23 12:00:00,
2013-01-23 05:00:00,42.0,-99.9,-100.00,SE,145,3.0,-999.0,-999,-99.99,,,-99.99,,2013-01-23 13:00:00,
2013-01-23 05:53:00,42.0,-99.9,-100.00,SE,145,3.0,-999.0,-999,-99.99,,,-99.99,,2013-01-23 13:53:00,
2013-01-23 06:00:00,42.0,-99.9,-100.00,SSE,152,2.0,-999.0,-999,-99.99,,,-99.99,,2013-01-23 14:00:00,
2013-01-23 07:00:00,42.0,-99.9,-100.00,SE,133,2.0,-999.0,-999,-99.99,,,-99.99,,2013-01-23 15:00:00,
2013-01-23 08:00:00,43.0,-99.9,-100.00,SSE,164,3.0,-999.0,-999,-99.99,,,-99.99,,2013-01-23 16:00:00,
2013-01-23 09:00:00,44.0,-99.9,-100.00,South,186,2.0,-999.0,-999,-99.99,,,-99.99,,2013-01-23 17:00:00,
2013-01-23 10:00:00,44.0,-99.9,-100.00,North,6,2.0,-999.0,-999,-99.99,,,-99.99,,2013-01-23 18:00:00,
2013-01-23 11:00:00,45.0,-99.9,-100.00,SE,142,2.0,-999.0,-999,-99.99,,,-99.99,,2013-01-23 19:00:00,
2013-01-23 12:00:00,45.0,-99.9,-100.00,SSE,149,3.0,-999.0,-999,-99.99,,,-99.99,,2013-01-23 20:00:00,
2013-01-23 13:00:00,44.0,-99.9,-100.00,SSE,166,3.0,-999.0,-999,-99.99,,,-99.99,,2013-01-23 21:00:00,
2013-01-23 14:00:00,43.0,-99.9,-100.00,South,182,2.0,-999.0,-999,-99.99,,,-99.99,,2013-01-23 22:00:00,
2013-01-23 15:00:00,43.0,-99.9,-100.00,SSW,204,2.0,-999.0,-999,-99.99,,,-99.99,,2013-01-23 23:00:00,
2013-01-23 16:00:00,43.0,-99.9,-100.00,South,172,3.0,-999.0,-999,-99.99,,,-99.99,,2013-01-24 00:00:00,
2013-01-23 17:00:00,43.0,-99.9,-100.00,SSE,168,3.0,-999.0,-999,-99.99,,,-99.99,,2013-01-24 01:00:00,
2013-01-23 18:00:00,43.0,-99.9,-100.00,South,177,6.0,-999.0,-999,-99.99,,,-99.99,,2013-01-24 02:00:00,
2013-01-23 19:00:00,44.0,-99.9,-100.00,South,187,3.0,-999.0,-999,-99.99,,,-99.99,,2013-01-24 03:00:00,
2013-01-23 20:00:00,44.0,-99.9,-100.00,South,169,5.0,-999.0,-999,-99.99,,,-99.99,,2013-01-24 04:00:00,
2013-01-23 20:53:00,44.0,-99.9,-100.00,South,169,5.0,-999.0,-999,-99.99,,,-99.99,,2013-01-24 04:53:00,
2013-01-23 21:00:00,44.0,-99.9,-100.00,South,179,7.0,-999.0,-999,-99.99,,,-99.99,,2013-01-24 05:00:00,
2013-01-23 22:00:00,44.0,-99.9,-100.00,South,178,6.0,-999.0,-999,-99.99,,,-99.99,,2013-01-24 06:00:00,
2013-01-23 23:00:00,45.0,-99.9,-100.00,South,178,6.0,-999.0,-999,-99.99,,,-99.99,,2013-01-24 07:00:00,